{"data":{"norad_id":66495,"epoch":"2026-09-20T21:24:13.087296Z","epoch_age_seconds":55420,"freshness":"FRESH","line1":"1 66495U 25263L   26263.89181814  .00012500  00000+0  46290-3 0  9998","line2":"2 66495  43.0045 328.2048 0001999 271.9118  88.1504 15.27585635 48759","mean_motion":15.27585635,"eccentricity":0.0001999,"inclination_deg":43.0045,"raan_deg":328.2048,"arg_perigee_deg":271.9118,"mean_anomaly_deg":88.1504,"bstar":0.0004629,"rev_number":4875,"period_min":94.26640097987,"perigee_km":481.66067514669,"apogee_km":484.40377060199,"semimajor_km":6861.1692228743,"source":"CELESTRAK","updated_at":"2026-09-21T09:00:35.921069Z"}}